Regional Weather Roundup
Issued by NWS

Home | Current Version | Previous Version | Text Only | Print | Product List | Glossary Off
Versions: 1 2 3 4 5 6 7 8 9 10 11 12 13 14 15 16 17 18 19 20 21 22 23 24 25 26 27 28 29 30 31 32 33 34 35 36 37 38 39 40 41 42 43 44 45 46 47 48 49 50

000
ASUS45 KABQ 230410
RWRNM
WEATHER ROUNDUP FOR NEW MEXICO
NATIONAL WEATHER SERVICE ALBUQUERQUE NM
900 PM MST SAT NOV 22 2014

NOTE: "FAIR" MEANS FEW OR NO CLOUDS BELOW 12,000 FEET AGL WITH NO
       SIGNIFICANT WEATHER OR OBSTRUCTIONS TO VISION.

      THIS PRODUCT IS RELEASED AS TWO VERSIONS.  ONE VERSION NEAR
      THE TOP OF THE HOUR CONTAINING PRELIMINARY DATA FROM ALBUQUERQUE
      AND OTHER STATIONS.  A FINAL VERSION WITH ADDITIONAL DATA IS
      ISSUED ABOUT 10 MINUTES AFTER THE HOUR.

NMZ501-503-504-510>518-230500-
NORTHWEST PLATEAU/NORTHCENTRAL MOUNTAINS

CITY           SKY/WX    TMP DP  RH WIND       PRES   REMARKS
FARMINGTON     MOCLDY    42  22  44 NE5       29.86F
LOS ALAMOS     CLOUDY    42  15  34 S5        29.90F
SANTA FE       PTCLDY    35  13  40 N5        29.88F WCI  31
TAOS           PTCLDY    37  18  44 CALM      29.88F
ANGEL FIRE     FAIR      29  11  47 CALM      29.89F

$$
NMZ402-403-502-505>509-230500-
WESTCENTRAL MOUNTAINS/SOUTHWEST MOUNTAINS

CITY           SKY/WX    TMP DP  RH WIND       PRES   REMARKS
GALLUP         MOCLDY    43  15  32 SW12      29.94F
GRANTS         MOCLDY    37  10  32 CALM      29.94F
SILVER CITY    CLEAR     43  16  33 NW10      30.00S

$$
NMZ407-409-411-412-230500-
SOUTHERN DESERTS

CITY           SKY/WX    TMP DP  RH WIND       PRES   REMARKS
LORDSBURG      FAIR      48  19  32 W9        29.98F
DEMING         CLEAR     51  19  28 W10       29.97R
LAS CRUCES     CLEAR     53  17  24 W18       29.93F
HOLLOMAN AFB   PTCLDY    47  19  31 SW7       29.87F
ALAMOGORDO     PTCLDY    48  18  29 MISG      29.89F
T OR C         CLEAR     55  17  22 CALM      29.89F

$$
NMZ519>523-230500-
CENTRAL VALLEYS/CENTRAL HIGHLANDS

CITY           SKY/WX    TMP DP  RH WIND       PRES   REMARKS
ALBUQUERQUE    MOCLDY    42  15  33 SE8       29.88F
DOUBLE EAGLE   CLEAR     37  12  35 SW6       29.89F WCI  33
MORIARTY ARPT  FAIR      43  15  31 NW7       29.87F
CLINES CORNERS CLEAR     41  16  36 NW25      29.83R
BELEN          FAIR      47  14  26 SW10      29.89F
SOCORRO        FAIR      44  17  32 SW7       29.88F

$$
NMZ524>526-539-540-230500-
SOUTHCENTRAL MOUNTAINS

CITY           SKY/WX    TMP DP  RH WIND       PRES   REMARKS
RUIDOSO        CLEAR     48  14  25 W18G28    29.87F

$$
NMZ527>531-230500-
NORTHEAST HIGHLANDS/NORTHEAST PLAINS

CITY           SKY/WX    TMP DP  RH WIND       PRES   REMARKS
LAS VEGAS      PTCLDY    48  16  27 NW20G29   29.72F
RATON          PTCLDY    50  16  25 W16G30    29.67F
CLAYTON        MOCLDY    46  17  31 W12       29.59S

$$
NMZ532>537-230500-
EASTCENTRAL PLAINS

CITY           SKY/WX    TMP DP  RH WIND       PRES   REMARKS
TUCUMCARI        N/A     53  15  22 W13       29.63S
CANNON AFB     CLEAR     57  16  19 W16       29.75S
CLOVIS AIRPORT CLEAR     46  16  29 SW17      29.70F

$$
NMZ028-029-538-230500-
SOUTHEAST PLAINS

CITY           SKY/WX    TMP DP  RH WIND       PRES   REMARKS
ROSWELL        CLEAR     49  23  36 SW10      29.77F
CARLSBAD       CLEAR     60  26  27 W17       29.81S
HOBBS          CLEAR     52  25  35 W14       29.81F


$$


USA.gov is the U.S. government's official web portal to all federal, state and local government web resources and services.